owner,sensor,date,latitude,longitude,sea_surface_height_above_sea_level,qcFlag 
TCOON,ioos:station:TCOON:518:1,2017-01-01T00:18:00Z,29.5150,-94.5133,1.563,1111122 
TCOON,ioos:station:TCOON:518:1,2017-01-01T01:18:00Z,29.5150,-94.5133,1.649,1111122 
TCOON,ioos:station:TCOON:518:1,2017-01-01T02:18:00Z,29.5150,-94.5133,1.706,1111122 
TCOON,ioos:station:TCOON:518:1,2017-01-01T03:18:00Z,29.5150,-94.5133,1.718,1111122 
TCOON,ioos:station:TCOON:518:1,2017-01-01T04:30:00Z,29.5150,-94.5133,1.68,1111122 
TCOON,ioos:station:TCOON:518:1,2017-01-01T05:24:00Z,29.5150,-94.5133,1.651,1111122 
TCOON,ioos:station:TCOON:518:1,2017-01-01T06:18:00Z,29.5150,-94.5133,1.616,1111122 
TCOON,ioos:station:TCOON:518:1,2017-01-01T07:18:00Z,29.5150,-94.5133,1.61,1111122 
TCOON,ioos:station:TCOON:518:1,2017-01-01T08:18:00Z,29.5150,-94.5133,1.586,1111122 
TCOON,ioos:station:TCOON:518:1,2017-01-01T09:24:00Z,29.5150,-94.5133,1.554,1111122 
TCOON,ioos:station:TCOON:518:1,2017-01-01T10:18:00Z,29.5150,-94.5133,1.542,1111122 
TCOON,ioos:station:TCOON:518:1,2017-01-01T11:18:00Z,29.5150,-94.5133,1.542,1111122 
TCOON,ioos:station:TCOON:518:1,2017-01-01T12:18:00Z,29.5150,-94.5133,1.518,1111122 
TCOON,ioos:station:TCOON:518:1,2017-01-01T13:18:00Z,29.5150,-94.5133,1.478,1111122 
TCOON,ioos:station:TCOON:518:1,2017-01-01T14:18:00Z,29.5150,-94.5133,1.427,1111122 
TCOON,ioos:station:TCOON:518:1,2017-01-01T15:18:00Z,29.5150,-94.5133,1.362,1111122 
TCOON,ioos:station:TCOON:518:1,2017-01-01T16:18:00Z,29.5150,-94.5133,1.29,1111122 
TCOON,ioos:station:TCOON:518:1,2017-01-01T17:18:00Z,29.5150,-94.5133,1.217,1111122 
TCOON,ioos:station:TCOON:518:1,2017-01-01T18:24:00Z,29.5150,-94.5133,1.204,1111122 
TCOON,ioos:station:TCOON:518:1,2017-01-01T19:18:00Z,29.5150,-94.5133,1.219,1111122 
TCOON,ioos:station:TCOON:518:1,2017-01-01T20:18:00Z,29.5150,-94.5133,1.258,1111122 
TCOON,ioos:station:TCOON:518:1,2017-01-01T21:18:00Z,29.5150,-94.5133,1.253,1111122 
TCOON,ioos:station:TCOON:518:1,2017-01-01T22:18:00Z,29.5150,-94.5133,1.248,1111122 
TCOON,ioos:station:TCOON:518:1,2017-01-02T00:18:00Z,29.5150,-94.5133,1.381,1111122 
TCOON,ioos:station:TCOON:518:1,2017-01-02T01:18:00Z,29.5150,-94.5133,1.489,1111122 
TCOON,ioos:station:TCOON:518:1,2017-01-02T02:18:00Z,29.5150,-94.5133,1.543,1111122 
TCOON,ioos:station:TCOON:518:1,2017-01-02T03:18:00Z,29.5150,-94.5133,1.584,1111122 
TCOON,ioos:station:TCOON:518:1,2017-01-02T04:18:00Z,29.5150,-94.5133,1.6,1111122 
TCOON,ioos:station:TCOON:518:1,2017-01-02T05:18:00Z,29.5150,-94.5133,1.617,1111122 
TCOON,ioos:station:TCOON:518:1,2017-01-02T06:18:00Z,29.5150,-94.5133,1.644,1111122 
TCOON,ioos:station:TCOON:518:1,2017-01-02T07:18:00Z,29.5150,-94.5133,1.639,1111122 
TCOON,ioos:station:TCOON:518:1,2017-01-02T08:18:00Z,29.5150,-94.5133,1.661,1111122 
TCOON,ioos:station:TCOON:518:1,2017-01-02T09:18:00Z,29.5150,-94.5133,1.671,1111122 
TCOON,ioos:station:TCOON:518:1,2017-01-02T10:18:00Z,29.5150,-94.5133,1.657,1111122 
TCOON,ioos:station:TCOON:518:1,2017-01-02T11:18:00Z,29.5150,-94.5133,1.613,1111122 
TCOON,ioos:station:TCOON:518:1,2017-01-02T12:18:00Z,29.5150,-94.5133,1.571,1111122 
TCOON,ioos:station:TCOON:518:1,2017-01-02T13:24:00Z,29.5150,-94.5133,1.577,1111122 
TCOON,ioos:station:TCOON:518:1,2017-01-02T14:24:00Z,29.5150,-94.5133,1.592,1111122 
TCOON,ioos:station:TCOON:518:1,2017-01-02T15:18:00Z,29.5150,-94.5133,1.579,1111122 
TCOON,ioos:station:TCOON:518:1,2017-01-02T16:18:00Z,29.5150,-94.5133,1.542,1111122 
TCOON,ioos:station:TCOON:518:1,2017-01-02T17:18:00Z,29.5150,-94.5133,1.543,1111122 
TCOON,ioos:station:TCOON:518:1,2017-01-02T18:18:00Z,29.5150,-94.5133,1.535,1111122 
TCOON,ioos:station:TCOON:518:1,2017-01-02T19:18:00Z,29.5150,-94.5133,1.418,1111122 
TCOON,ioos:station:TCOON:518:1,2017-01-02T20:18:00Z,29.5150,-94.5133,1.343,1111122 
TCOON,ioos:station:TCOON:518:1,2017-01-02T21:18:00Z,29.5150,-94.5133,1.302,1111122 
TCOON,ioos:station:TCOON:518:1,2017-01-02T22:18:00Z,29.5150,-94.5133,1.26,1111122 
TCOON,ioos:station:TCOON:518:1,2017-01-02T23:18:00Z,29.5150,-94.5133,1.254,1111122 
TCOON,ioos:station:TCOON:518:1,2017-01-03T00:18:00Z,29.5150,-94.5133,1.353,1111122 
TCOON,ioos:station:TCOON:518:1,2017-01-03T01:18:00Z,29.5150,-94.5133,1.455,1111122 
TCOON,ioos:station:TCOON:518:1,2017-01-03T02:18:00Z,29.5150,-94.5133,1.529,1111122 
TCOON,ioos:station:TCOON:518:1,2017-01-03T03:18:00Z,29.5150,-94.5133,1.587,1111122 
TCOON,ioos:station:TCOON:518:1,2017-01-03T04:18:00Z,29.5150,-94.5133,1.584,1111122 
TCOON,ioos:station:TCOON:518:1,2017-01-03T05:18:00Z,29.5150,-94.5133,1.596,1111122 
TCOON,ioos:station:TCOON:518:1,2017-01-03T06:24:00Z,29.5150,-94.5133,1.629,1111122 
TCOON,ioos:station:TCOON:518:1,2017-01-03T07:24:00Z,29.5150,-94.5133,1.664,1111122 
TCOON,ioos:station:TCOON:518:1,2017-01-03T08:18:00Z,29.5150,-94.5133,1.686,1111122 
TCOON,ioos:station:TCOON:518:1,2017-01-03T09:18:00Z,29.5150,-94.5133,1.622,1111122 
TCOON,ioos:station:TCOON:518:1,2017-01-03T10:18:00Z,29.5150,-94.5133,1.603,1111122 
TCOON,ioos:station:TCOON:518:1,2017-01-03T11:18:00Z,29.5150,-94.5133,1.533,1111122 
TCOON,ioos:station:TCOON:518:1,2017-01-03T12:18:00Z,29.5150,-94.5133,1.505,1111122 
TCOON,ioos:station:TCOON:518:1,2017-01-03T13:18:00Z,29.5150,-94.5133,1.47,1111122 
TCOON,ioos:station:TCOON:518:1,2017-01-03T14:18:00Z,29.5150,-94.5133,1.463,1111122 
TCOON,ioos:station:TCOON:518:1,2017-01-03T15:18:00Z,29.5150,-94.5133,1.514,1111122 
TCOON,ioos:station:TCOON:518:1,2017-01-03T16:18:00Z,29.5150,-94.5133,1.553,1111122 
TCOON,ioos:station:TCOON:518:1,2017-01-03T17:18:00Z,29.5150,-94.5133,1.525,1111122 
TCOON,ioos:station:TCOON:518:1,2017-01-03T18:18:00Z,29.5150,-94.5133,1.434,1111122 
TCOON,ioos:station:TCOON:518:1,2017-01-03T19:18:00Z,29.5150,-94.5133,1.364,1111122 
TCOON,ioos:station:TCOON:518:1,2017-01-03T20:18:00Z,29.5150,-94.5133,1.309,1111122 
TCOON,ioos:station:TCOON:518:1,2017-01-03T21:18:00Z,29.5150,-94.5133,1.275,1111122 
TCOON,ioos:station:TCOON:518:1,2017-01-03T22:18:00Z,29.5150,-94.5133,1.242,1111122 
TCOON,ioos:station:TCOON:518:1,2017-01-03T23:18:00Z,29.5150,-94.5133,1.221,1111122 
TCOON,ioos:station:TCOON:518:1,2017-01-04T00:18:00Z,29.5150,-94.5133,1.298,1111122 
TCOON,ioos:station:TCOON:518:1,2017-01-04T01:18:00Z,29.5150,-94.5133,1.383,1111122 
TCOON,ioos:station:TCOON:518:1,2017-01-04T02:18:00Z,29.5150,-94.5133,1.452,1111122 
TCOON,ioos:station:TCOON:518:1,2017-01-04T03:18:00Z,29.5150,-94.5133,1.562,1111122 
TCOON,ioos:station:TCOON:518:1,2017-01-04T05:24:00Z,29.5150,-94.5133,1.605,1111122 
TCOON,ioos:station:TCOON:518:1,2017-01-04T06:18:00Z,29.5150,-94.5133,1.649,1111122 
TCOON,ioos:station:TCOON:518:1,2017-01-04T07:18:00Z,29.5150,-94.5133,1.605,1111122 
TCOON,ioos:station:TCOON:518:1,2017-01-04T08:18:00Z,29.5150,-94.5133,1.494,1111122 
TCOON,ioos:station:TCOON:518:1,2017-01-04T09:24:00Z,29.5150,-94.5133,1.419,1111122 
TCOON,ioos:station:TCOON:518:1,2017-01-04T10:18:00Z,29.5150,-94.5133,1.341,1111122 
TCOON,ioos:station:TCOON:518:1,2017-01-04T11:18:00Z,29.5150,-94.5133,1.275,1111122 
TCOON,ioos:station:TCOON:518:1,2017-01-04T12:18:00Z,29.5150,-94.5133,1.233,1111122 
TCOON,ioos:station:TCOON:518:1,2017-01-04T13:18:00Z,29.5150,-94.5133,1.186,1111122 
TCOON,ioos:station:TCOON:518:1,2017-01-04T14:18:00Z,29.5150,-94.5133,1.167,1111122 
TCOON,ioos:station:TCOON:518:1,2017-01-04T15:18:00Z,29.5150,-94.5133,1.169,1111122 
TCOON,ioos:station:TCOON:518:1,2017-01-04T16:18:00Z,29.5150,-94.5133,1.202,1111122 
TCOON,ioos:station:TCOON:518:1,2017-01-04T17:18:00Z,29.5150,-94.5133,1.267,1111122 
TCOON,ioos:station:TCOON:518:1,2017-01-04T18:24:00Z,29.5150,-94.5133,1.276,1111122 
TCOON,ioos:station:TCOON:518:1,2017-01-04T19:18:00Z,29.5150,-94.5133,1.266,1111122 
TCOON,ioos:station:TCOON:518:1,2017-01-04T20:18:00Z,29.5150,-94.5133,1.229,1111122 
TCOON,ioos:station:TCOON:518:1,2017-01-04T21:18:00Z,29.5150,-94.5133,1.242,1111122 
TCOON,ioos:station:TCOON:518:1,2017-01-04T22:18:00Z,29.5150,-94.5133,1.257,1111122 
TCOON,ioos:station:TCOON:518:1,2017-01-04T23:18:00Z,29.5150,-94.5133,1.259,1111122 
TCOON,ioos:station:TCOON:518:1,2017-01-05T00:18:00Z,29.5150,-94.5133,1.24,1111122 
TCOON,ioos:station:TCOON:518:1,2017-01-05T01:18:00Z,29.5150,-94.5133,1.322,1111122 
TCOON,ioos:station:TCOON:518:1,2017-01-05T02:18:00Z,29.5150,-94.5133,1.418,1111122 
TCOON,ioos:station:TCOON:518:1,2017-01-05T03:24:00Z,29.5150,-94.5133,1.486,1111122 
TCOON,ioos:station:TCOON:518:1,2017-01-05T04:18:00Z,29.5150,-94.5133,1.54,1111122 
TCOON,ioos:station:TCOON:518:1,2017-01-05T05:18:00Z,29.5150,-94.5133,1.56,1111122 
TCOON,ioos:station:TCOON:518:1,2017-01-05T06:18:00Z,29.5150,-94.5133,1.551,1111122 
TCOON,ioos:station:TCOON:518:1,2017-01-05T07:18:00Z,29.5150,-94.5133,1.547,1111122 
TCOON,ioos:station:TCOON:518:1,2017-01-05T08:18:00Z,29.5150,-94.5133,1.522,1111122 
TCOON,ioos:station:TCOON:518:1,2017-01-05T09:18:00Z,29.5150,-94.5133,1.486,1111122 
TCOON,ioos:station:TCOON:518:1,2017-01-05T10:18:00Z,29.5150,-94.5133,1.432,1111122 
TCOON,ioos:station:TCOON:518:1,2017-01-05T11:18:00Z,29.5150,-94.5133,1.366,1111122 
TCOON,ioos:station:TCOON:518:1,2017-01-05T12:24:00Z,29.5150,-94.5133,1.342,1111122 
TCOON,ioos:station:TCOON:518:1,2017-01-05T13:18:00Z,29.5150,-94.5133,1.295,1111122 
TCOON,ioos:station:TCOON:518:1,2017-01-05T14:18:00Z,29.5150,-94.5133,1.29,1111122 
TCOON,ioos:station:TCOON:518:1,2017-01-05T15:18:00Z,29.5150,-94.5133,1.347,1111122 
TCOON,ioos:station:TCOON:518:1,2017-01-05T16:18:00Z,29.5150,-94.5133,1.371,1111122 
TCOON,ioos:station:TCOON:518:1,2017-01-05T17:18:00Z,29.5150,-94.5133,1.406,1111122 
TCOON,ioos:station:TCOON:518:1,2017-01-05T18:18:00Z,29.5150,-94.5133,1.434,1111122 
TCOON,ioos:station:TCOON:518:1,2017-01-05T19:18:00Z,29.5150,-94.5133,1.437,1111122 
TCOON,ioos:station:TCOON:518:1,2017-01-05T20:24:00Z,29.5150,-94.5133,1.429,1111122 
TCOON,ioos:station:TCOON:518:1,2017-01-05T21:18:00Z,29.5150,-94.5133,1.396,1111122 
TCOON,ioos:station:TCOON:518:1,2017-01-05T22:18:00Z,29.5150,-94.5133,1.382,1111122 
TCOON,ioos:station:TCOON:518:1,2017-01-05T23:18:00Z,29.5150,-94.5133,1.37,1111122 
TCOON,ioos:station:TCOON:518:1,2017-01-06T00:18:00Z,29.5150,-94.5133,1.345,1111122 
TCOON,ioos:station:TCOON:518:1,2017-01-06T01:18:00Z,29.5150,-94.5133,1.335,1111122 
TCOON,ioos:station:TCOON:518:1,2017-01-06T02:18:00Z,29.5150,-94.5133,1.301,1111122 
TCOON,ioos:station:TCOON:518:1,2017-01-06T03:18:00Z,29.5150,-94.5133,1.294,1111122 
TCOON,ioos:station:TCOON:518:1,2017-01-06T04:18:00Z,29.5150,-94.5133,1.307,1111122 
TCOON,ioos:station:TCOON:518:1,2017-01-06T05:24:00Z,29.5150,-94.5133,1.329,1111122 
TCOON,ioos:station:TCOON:518:1,2017-01-06T06:18:00Z,29.5150,-94.5133,1.336,1111122 
TCOON,ioos:station:TCOON:518:1,2017-01-06T07:18:00Z,29.5150,-94.5133,1.33,1111122 
TCOON,ioos:station:TCOON:518:1,2017-01-06T08:18:00Z,29.5150,-94.5133,1.278,1111122 
TCOON,ioos:station:TCOON:518:1,2017-01-06T09:18:00Z,29.5150,-94.5133,1.254,1111122 
TCOON,ioos:station:TCOON:518:1,2017-01-06T10:24:00Z,29.5150,-94.5133,1.264,1111122 
TCOON,ioos:station:TCOON:518:1,2017-01-06T11:18:00Z,29.5150,-94.5133,1.225,1111122 
TCOON,ioos:station:TCOON:518:1,2017-01-06T12:18:00Z,29.5150,-94.5133,1.193,1111122 
TCOON,ioos:station:TCOON:518:1,2017-01-06T13:18:00Z,29.5150,-94.5133,1.179,1111122 
TCOON,ioos:station:TCOON:518:1,2017-01-06T14:24:00Z,29.5150,-94.5133,1.113,1111122 
TCOON,ioos:station:TCOON:518:1,2017-01-06T15:18:00Z,29.5150,-94.5133,1.073,1111122 
TCOON,ioos:station:TCOON:518:1,2017-01-06T16:18:00Z,29.5150,-94.5133,1.036,1111122 
TCOON,ioos:station:TCOON:518:1,2017-01-06T17:18:00Z,29.5150,-94.5133,1.048,1111122 
TCOON,ioos:station:TCOON:518:1,2017-01-06T18:18:00Z,29.5150,-94.5133,1.109,1111122 
TCOON,ioos:station:TCOON:518:1,2017-01-06T19:24:00Z,29.5150,-94.5133,1.202,1111122 
TCOON,ioos:station:TCOON:518:1,2017-01-06T20:18:00Z,29.5150,-94.5133,1.251,1111122 
TCOON,ioos:station:TCOON:518:1,2017-01-06T21:18:00Z,29.5150,-94.5133,1.266,1111122 
TCOON,ioos:station:TCOON:518:1,2017-01-06T22:18:00Z,29.5150,-94.5133,1.319,1111122 
TCOON,ioos:station:TCOON:518:1,2017-01-07T00:18:00Z,29.5150,-94.5133,1.222,1111122 
TCOON,ioos:station:TCOON:518:1,2017-01-07T01:18:00Z,29.5150,-94.5133,1.222,1111122 
TCOON,ioos:station:TCOON:518:1,2017-01-07T02:18:00Z,29.5150,-94.5133,1.236,1111122 
TCOON,ioos:station:TCOON:518:1,2017-01-07T03:18:00Z,29.5150,-94.5133,1.221,1111122 
TCOON,ioos:station:TCOON:518:1,2017-01-07T04:18:00Z,29.5150,-94.5133,1.18,1111122 
TCOON,ioos:station:TCOON:518:1,2017-01-07T05:18:00Z,29.5150,-94.5133,1.135,1111122 
TCOON,ioos:station:TCOON:518:1,2017-01-07T06:18:00Z,29.5150,-94.5133,1.134,1111122 
TCOON,ioos:station:TCOON:518:1,2017-01-07T07:18:00Z,29.5150,-94.5133,1.142,1111122 
TCOON,ioos:station:TCOON:518:1,2017-01-07T08:18:00Z,29.5150,-94.5133,1.132,1111122 
TCOON,ioos:station:TCOON:518:1,2017-01-07T09:24:00Z,29.5150,-94.5133,1.126,1111122 
TCOON,ioos:station:TCOON:518:1,2017-01-07T10:18:00Z,29.5150,-94.5133,1.09,1111122 
TCOON,ioos:station:TCOON:518:1,2017-01-07T11:18:00Z,29.5150,-94.5133,1.038,1111122 
TCOON,ioos:station:TCOON:518:1,2017-01-07T12:18:00Z,29.5150,-94.5133,0.984,1111122 
TCOON,ioos:station:TCOON:518:1,2017-01-07T13:18:00Z,29.5150,-94.5133,0.938,1111122 
TCOON,ioos:station:TCOON:518:1,2017-01-07T14:18:00Z,29.5150,-94.5133,0.927,1111122 
TCOON,ioos:station:TCOON:518:1,2017-01-07T15:18:00Z,29.5150,-94.5133,0.962,1111122 
TCOON,ioos:station:TCOON:518:1,2017-01-07T16:18:00Z,29.5150,-94.5133,0.976,1111122 
TCOON,ioos:station:TCOON:518:1,2017-01-07T17:18:00Z,29.5150,-94.5133,0.993,1111122 
TCOON,ioos:station:TCOON:518:1,2017-01-07T18:18:00Z,29.5150,-94.5133,1.029,1111122 
TCOON,ioos:station:TCOON:518:1,2017-01-07T19:18:00Z,29.5150,-94.5133,1.097,1111122 
TCOON,ioos:station:TCOON:518:1,2017-01-07T20:18:00Z,29.5150,-94.5133,1.18,1111122 
TCOON,ioos:station:TCOON:518:1,2017-01-07T21:18:00Z,29.5150,-94.5133,1.224,1111122 
TCOON,ioos:station:TCOON:518:1,2017-01-07T22:18:00Z,29.5150,-94.5133,1.225,1111122 
TCOON,ioos:station:TCOON:518:1,2017-01-07T23:18:00Z,29.5150,-94.5133,1.204,1111122 
TCOON,ioos:station:TCOON:518:1,2017-01-08T00:18:00Z,29.5150,-94.5133,1.174,1111122 
TCOON,ioos:station:TCOON:518:1,2017-01-08T01:18:00Z,29.5150,-94.5133,1.167,1111122 
TCOON,ioos:station:TCOON:518:1,2017-01-08T02:18:00Z,29.5150,-94.5133,1.165,1111122 
TCOON,ioos:station:TCOON:518:1,2017-01-08T03:18:00Z,29.5150,-94.5133,1.124,1111122 
TCOON,ioos:station:TCOON:518:1,2017-01-08T04:18:00Z,29.5150,-94.5133,1.067,1111122 
TCOON,ioos:station:TCOON:518:1,2017-01-08T05:18:00Z,29.5150,-94.5133,1.037,1111122 
TCOON,ioos:station:TCOON:518:1,2017-01-08T06:18:00Z,29.5150,-94.5133,1.072,1111122 
TCOON,ioos:station:TCOON:518:1,2017-01-08T07:18:00Z,29.5150,-94.5133,1.117,1111122 
TCOON,ioos:station:TCOON:518:1,2017-01-08T08:18:00Z,29.5150,-94.5133,1.168,1111122 
TCOON,ioos:station:TCOON:518:1,2017-01-08T09:18:00Z,29.5150,-94.5133,1.176,1111122 
TCOON,ioos:station:TCOON:518:1,2017-01-08T10:18:00Z,29.5150,-94.5133,1.132,1111122 
TCOON,ioos:station:TCOON:518:1,2017-01-08T11:18:00Z,29.5150,-94.5133,1.057,1111122 
TCOON,ioos:station:TCOON:518:1,2017-01-08T13:54:00Z,29.5150,-94.5133,0.973,1111122 
TCOON,ioos:station:TCOON:518:1,2017-01-08T14:18:00Z,29.5150,-94.5133,0.962,1111122 
TCOON,ioos:station:TCOON:518:1,2017-01-08T15:18:00Z,29.5150,-94.5133,0.928,1111122 
TCOON,ioos:station:TCOON:518:1,2017-01-08T16:18:00Z,29.5150,-94.5133,0.936,1111122 
TCOON,ioos:station:TCOON:518:1,2017-01-08T17:18:00Z,29.5150,-94.5133,0.997,1111122 
TCOON,ioos:station:TCOON:518:1,2017-01-08T18:18:00Z,29.5150,-94.5133,1.121,1111122 
TCOON,ioos:station:TCOON:518:1,2017-01-08T19:18:00Z,29.5150,-94.5133,1.201,1111122 
TCOON,ioos:station:TCOON:518:1,2017-01-08T20:18:00Z,29.5150,-94.5133,1.274,1111122 
TCOON,ioos:station:TCOON:518:1,2017-01-08T21:18:00Z,29.5150,-94.5133,1.385,1111122 
TCOON,ioos:station:TCOON:518:1,2017-01-08T22:18:00Z,29.5150,-94.5133,1.428,1111122 
TCOON,ioos:station:TCOON:518:1,2017-01-08T23:18:00Z,29.5150,-94.5133,1.453,1111122 
TCOON,ioos:station:TCOON:518:1,2017-01-09T00:18:00Z,29.5150,-94.5133,1.439,1111122 
TCOON,ioos:station:TCOON:518:1,2017-01-09T01:18:00Z,29.5150,-94.5133,1.45,1111122 
TCOON,ioos:station:TCOON:518:1,2017-01-09T02:18:00Z,29.5150,-94.5133,1.481,1111122 
TCOON,ioos:station:TCOON:518:1,2017-01-09T03:18:00Z,29.5150,-94.5133,1.529,1111122 
TCOON,ioos:station:TCOON:518:1,2017-01-09T04:18:00Z,29.5150,-94.5133,1.55,1111122 
TCOON,ioos:station:TCOON:518:1,2017-01-09T05:18:00Z,29.5150,-94.5133,1.549,1111122 
TCOON,ioos:station:TCOON:518:1,2017-01-09T06:18:00Z,29.5150,-94.5133,1.602,1111122 
TCOON,ioos:station:TCOON:518:1,2017-01-09T07:18:00Z,29.5150,-94.5133,1.608,1111122 
TCOON,ioos:station:TCOON:518:1,2017-01-09T08:18:00Z,29.5150,-94.5133,1.592,1111122 
TCOON,ioos:station:TCOON:518:1,2017-01-09T09:18:00Z,29.5150,-94.5133,1.614,1111122 
TCOON,ioos:station:TCOON:518:1,2017-01-09T10:18:00Z,29.5150,-94.5133,1.576,1111122 
TCOON,ioos:station:TCOON:518:1,2017-01-09T11:18:00Z,29.5150,-94.5133,1.498,1111122 
TCOON,ioos:station:TCOON:518:1,2017-01-09T12:18:00Z,29.5150,-94.5133,1.365,1111122 
TCOON,ioos:station:TCOON:518:1,2017-01-09T13:18:00Z,29.5150,-94.5133,1.244,1111122 
TCOON,ioos:station:TCOON:518:1,2017-01-09T14:18:00Z,29.5150,-94.5133,1.17,1111122 
TCOON,ioos:station:TCOON:518:1,2017-01-09T15:18:00Z,29.5150,-94.5133,1.146,1111122 
TCOON,ioos:station:TCOON:518:1,2017-01-09T16:18:00Z,29.5150,-94.5133,1.131,1111122 
TCOON,ioos:station:TCOON:518:1,2017-01-09T17:18:00Z,29.5150,-94.5133,1.127,1111122 
TCOON,ioos:station:TCOON:518:1,2017-01-09T18:18:00Z,29.5150,-94.5133,1.195,1111122 
TCOON,ioos:station:TCOON:518:1,2017-01-09T19:18:00Z,29.5150,-94.5133,1.33,1111122 
TCOON,ioos:station:TCOON:518:1,2017-01-09T20:18:00Z,29.5150,-94.5133,1.403,1111122 
TCOON,ioos:station:TCOON:518:1,2017-01-09T21:18:00Z,29.5150,-94.5133,1.501,1111122 
TCOON,ioos:station:TCOON:518:1,2017-01-09T22:18:00Z,29.5150,-94.5133,1.541,1111122 
TCOON,ioos:station:TCOON:518:1,2017-01-09T23:18:00Z,29.5150,-94.5133,1.568,1111122 
TCOON,ioos:station:TCOON:518:1,2017-01-10T00:18:00Z,29.5150,-94.5133,1.601,1111122 
TCOON,ioos:station:TCOON:518:1,2017-01-10T01:18:00Z,29.5150,-94.5133,1.605,1111122 
TCOON,ioos:station:TCOON:518:1,2017-01-10T02:18:00Z,29.5150,-94.5133,1.62,1111122 
TCOON,ioos:station:TCOON:518:1,2017-01-10T03:18:00Z,29.5150,-94.5133,1.61,1111122 
TCOON,ioos:station:TCOON:518:1,2017-01-10T04:24:00Z,29.5150,-94.5133,1.555,1111122 
TCOON,ioos:station:TCOON:518:1,2017-01-10T05:18:00Z,29.5150,-94.5133,1.567,1111122 
TCOON,ioos:station:TCOON:518:1,2017-01-10T06:18:00Z,29.5150,-94.5133,1.596,1111122 
TCOON,ioos:station:TCOON:518:1,2017-01-10T07:18:00Z,29.5150,-94.5133,1.604,1111122 
TCOON,ioos:station:TCOON:518:1,2017-01-10T08:18:00Z,29.5150,-94.5133,1.618,1111122 
TCOON,ioos:station:TCOON:518:1,2017-01-10T09:18:00Z,29.5150,-94.5133,1.629,1111122 
TCOON,ioos:station:TCOON:518:1,2017-01-10T10:18:00Z,29.5150,-94.5133,1.59,1111122 
TCOON,ioos:station:TCOON:518:1,2017-01-10T11:18:00Z,29.5150,-94.5133,1.515,1111122 
TCOON,ioos:station:TCOON:518:1,2017-01-10T12:18:00Z,29.5150,-94.5133,1.451,1111122 
TCOON,ioos:station:TCOON:518:1,2017-01-10T13:18:00Z,29.5150,-94.5133,1.388,1111122 
TCOON,ioos:station:TCOON:518:1,2017-01-10T14:18:00Z,29.5150,-94.5133,1.329,1111122 
TCOON,ioos:station:TCOON:518:1,2017-01-10T15:18:00Z,29.5150,-94.5133,1.315,1111122 
TCOON,ioos:station:TCOON:518:1,2017-01-10T16:18:00Z,29.5150,-94.5133,1.245,1111122 
TCOON,ioos:station:TCOON:518:1,2017-01-10T17:18:00Z,29.5150,-94.5133,1.261,1111122 
TCOON,ioos:station:TCOON:518:1,2017-01-10T18:18:00Z,29.5150,-94.5133,1.271,1111122 
TCOON,ioos:station:TCOON:518:1,2017-01-10T19:18:00Z,29.5150,-94.5133,1.347,1111122 
TCOON,ioos:station:TCOON:518:1,2017-01-10T20:18:00Z,29.5150,-94.5133,1.443,1111122 
TCOON,ioos:station:TCOON:518:1,2017-01-10T21:18:00Z,29.5150,-94.5133,1.491,1111122 
TCOON,ioos:station:TCOON:518:1,2017-01-10T22:18:00Z,29.5150,-94.5133,1.551,1111122 
TCOON,ioos:station:TCOON:518:1,2017-01-10T23:18:00Z,29.5150,-94.5133,1.599,1111122 
TCOON,ioos:station:TCOON:518:1,2017-01-11T00:18:00Z,29.5150,-94.5133,1.61,1111122 
TCOON,ioos:station:TCOON:518:1,2017-01-11T01:18:00Z,29.5150,-94.5133,1.626,1111122 
TCOON,ioos:station:TCOON:518:1,2017-01-11T02:18:00Z,29.5150,-94.5133,1.631,1111122 
TCOON,ioos:station:TCOON:518:1,2017-01-11T03:18:00Z,29.5150,-94.5133,1.592,1111122 
TCOON,ioos:station:TCOON:518:1,2017-01-11T04:18:00Z,29.5150,-94.5133,1.556,1111122 
TCOON,ioos:station:TCOON:518:1,2017-01-11T05:18:00Z,29.5150,-94.5133,1.55,1111122 
TCOON,ioos:station:TCOON:518:1,2017-01-11T06:18:00Z,29.5150,-94.5133,1.57,1111122 
TCOON,ioos:station:TCOON:518:1,2017-01-11T07:18:00Z,29.5150,-94.5133,1.534,1111122 
TCOON,ioos:station:TCOON:518:1,2017-01-11T08:18:00Z,29.5150,-94.5133,1.567,1111122 
TCOON,ioos:station:TCOON:518:1,2017-01-11T09:18:00Z,29.5150,-94.5133,1.559,1111122 
TCOON,ioos:station:TCOON:518:1,2017-01-11T10:18:00Z,29.5150,-94.5133,1.554,1111122 
TCOON,ioos:station:TCOON:518:1,2017-01-11T11:18:00Z,29.5150,-94.5133,1.48,1111122 
TCOON,ioos:station:TCOON:518:1,2017-01-11T12:18:00Z,29.5150,-94.5133,1.374,1111122 
TCOON,ioos:station:TCOON:518:1,2017-01-11T13:18:00Z,29.5150,-94.5133,1.292,1111122 
TCOON,ioos:station:TCOON:518:1,2017-01-11T14:18:00Z,29.5150,-94.5133,1.225,1111122 
TCOON,ioos:station:TCOON:518:1,2017-01-11T15:18:00Z,29.5150,-94.5133,1.145,1111122 
TCOON,ioos:station:TCOON:518:1,2017-01-11T16:18:00Z,29.5150,-94.5133,1.125,1111122 
TCOON,ioos:station:TCOON:518:1,2017-01-11T17:18:00Z,29.5150,-94.5133,1.081,1111122 
TCOON,ioos:station:TCOON:518:1,2017-01-11T18:18:00Z,29.5150,-94.5133,1.073,1111122 
TCOON,ioos:station:TCOON:518:1,2017-01-11T19:18:00Z,29.5150,-94.5133,1.102,1111122 
TCOON,ioos:station:TCOON:518:1,2017-01-11T20:18:00Z,29.5150,-94.5133,1.195,1111122 
TCOON,ioos:station:TCOON:518:1,2017-01-11T21:18:00Z,29.5150,-94.5133,1.337,1111122 
TCOON,ioos:station:TCOON:518:1,2017-01-11T22:18:00Z,29.5150,-94.5133,1.451,1111122 
TCOON,ioos:station:TCOON:518:1,2017-01-11T23:18:00Z,29.5150,-94.5133,1.484,1111122 
TCOON,ioos:station:TCOON:518:1,2017-01-12T00:18:00Z,29.5150,-94.5133,1.56,1111122 
TCOON,ioos:station:TCOON:518:1,2017-01-12T01:18:00Z,29.5150,-94.5133,1.553,1111122 
TCOON,ioos:station:TCOON:518:1,2017-01-12T02:18:00Z,29.5150,-94.5133,1.591,1111122 
TCOON,ioos:station:TCOON:518:1,2017-01-12T03:18:00Z,29.5150,-94.5133,1.639,1111122 
TCOON,ioos:station:TCOON:518:1,2017-01-12T04:18:00Z,29.5150,-94.5133,1.65,1111122 
TCOON,ioos:station:TCOON:518:1,2017-01-12T05:18:00Z,29.5150,-94.5133,1.667,1111122 
TCOON,ioos:station:TCOON:518:1,2017-01-12T06:18:00Z,29.5150,-94.5133,1.696,1111122 
TCOON,ioos:station:TCOON:518:1,2017-01-12T07:18:00Z,29.5150,-94.5133,1.724,1111122 
TCOON,ioos:station:TCOON:518:1,2017-01-12T08:18:00Z,29.5150,-94.5133,1.757,1111122 
TCOON,ioos:station:TCOON:518:1,2017-01-12T09:18:00Z,29.5150,-94.5133,1.774,1111122 
TCOON,ioos:station:TCOON:518:1,2017-01-12T10:18:00Z,29.5150,-94.5133,1.767,1111122 
TCOON,ioos:station:TCOON:518:1,2017-01-12T11:18:00Z,29.5150,-94.5133,1.708,1111122 
TCOON,ioos:station:TCOON:518:1,2017-01-12T12:18:00Z,29.5150,-94.5133,1.625,1111122 
TCOON,ioos:station:TCOON:518:1,2017-01-12T13:18:00Z,29.5150,-94.5133,1.523,1111122 
TCOON,ioos:station:TCOON:518:1,2017-01-12T14:18:00Z,29.5150,-94.5133,1.45,1111122 
TCOON,ioos:station:TCOON:518:1,2017-01-12T15:18:00Z,29.5150,-94.5133,1.384,1111122 
TCOON,ioos:station:TCOON:518:1,2017-01-12T16:18:00Z,29.5150,-94.5133,1.317,1111122 
TCOON,ioos:station:TCOON:518:1,2017-01-12T17:18:00Z,29.5150,-94.5133,1.247,1111122 
TCOON,ioos:station:TCOON:518:1,2017-01-12T18:18:00Z,29.5150,-94.5133,1.201,1111122 
TCOON,ioos:station:TCOON:518:1,2017-01-12T19:18:00Z,29.5150,-94.5133,1.17,1111122 
TCOON,ioos:station:TCOON:518:1,2017-01-12T20:18:00Z,29.5150,-94.5133,1.176,1111122 
TCOON,ioos:station:TCOON:518:1,2017-01-12T21:18:00Z,29.5150,-94.5133,1.24,1111122 
TCOON,ioos:station:TCOON:518:1,2017-01-12T22:18:00Z,29.5150,-94.5133,1.383,1111122 
TCOON,ioos:station:TCOON:518:1,2017-01-12T23:18:00Z,29.5150,-94.5133,1.51,1111122 
TCOON,ioos:station:TCOON:518:1,2017-01-13T00:18:00Z,29.5150,-94.5133,1.566,1111122 